Shelbyville, IN

8:13 AM EST on December 13, 2019 (GMT -0500)
Shelbyville Municipal

Weather History for KGEZ - October, 2019

Change the Weather History Date:

Monday, October 7, 2019

  Actual Average Record
Temperature  
Mean Temperature 60 °F 57 °F  
Max Temperature 73 °F 69 °F 91 °F (2007)
Min Temperature 47 °F 45 °F 30 °F (2000)
Degree Days  
Heating Degree Days 5 9  
Month to date heating degree days 14 56  
Since 1 July heating degree days 17 141  
Cooling Degree Days 0 1  
Month to date cooling degree days 36 7  
Year to date cooling degree days 1330 906  
Growing Degree Days 10 (Base 50)    
Moisture  
Dew Point 49 °F    
Average Humidity 60    
Maximum Humidity 93    
Minimum Humidity 27    
Precipitation  
Precipitation T in 0.10 in 0.63 in (2014)
Month to date precipitation 0.38 0.78  
Year to date precipitation 32.59 34.23  
Sea Level Pressure  
Sea Level Pressure 30.17 in    
Wind  
Wind Speed 3 mph (NNW)    
Max Wind Speed 12 mph    
Max Gust Speed 16 mph    
Visibility 7 miles    
Events Fog    
T = Trace of Precipitation, MM = Missing Value Source: NWS Daily Summary

Daily Weather History Graph

Daily Weather History Graph

Search for Another Location

Airport or City:

Astronomy

Oct. 07, 2019 Rise Set
Actual Time 7:44 AM EDT 7:16 PM EDT
Civil Twilight 7:18 AM EDT 7:43 PM EDT
Nautical Twilight 6:46 AM EDT 8:14 PM EDT
Astronomical Twilight 6:15 AM EDT 8:45 PM EDT
Moon 4:36 PM EDT (10/7) 1:38 AM EDT (10/7)
Length of Visible Light 12h 25m
Length of Day
11h 31m
Waxing Gibbous, 69% of the Moon is Illuminated
Oct 7
Waxing Gibbous
Oct 13
Full
Oct 21
Last Quarter
Oct 27
New
Nov 4
First Quarter

Hourly Weather History & Observations

Time (EDT) Temp. Dew Point Humidity Pressure Visibility Wind Dir Wind Speed Gust Speed Precip Events Conditions
12:53 AM 60.1 °F 57.0 °F 90% 30.14 in 9.0 mi Calm Calm - N/A   Overcast
1:53 AM 59.0 °F 57.0 °F 93% 30.14 in 6.0 mi Calm Calm - 0.00 in   Overcast
2:53 AM 59.0 °F 55.9 °F 90% 30.14 in 6.0 mi Calm Calm - N/A   Overcast
3:53 AM 57.9 °F 55.9 °F 93% 30.15 in 5.0 mi Calm Calm - N/A   Partly Cloudy
4:20 AM 57.0 °F 54.0 °F 89% 30.15 in 1.8 mi Calm Calm - N/A   Clear
4:29 AM 57.0 °F 55.0 °F 93% 30.16 in 0.5 mi West 3.5 mph - N/A Fog Fog
4:48 AM 57.2 °F 53.6 °F 88% 30.15 in 2.0 mi West 3.5 mph - N/A   Clear
4:53 AM 57.0 °F 55.0 °F 93% 30.15 in 4.0 mi Calm Calm - N/A   Clear
5:03 AM 55.9 °F 54.0 °F 93% 30.15 in 2.0 mi Calm Calm - N/A   Clear
5:53 AM 54.0 °F 52.0 °F 93% 30.16 in 0.5 mi Calm Calm - N/A Fog Fog
6:00 AM 54.0 °F 52.0 °F 93% 30.16 in 0.2 mi NW 3.5 mph - N/A Fog Fog
6:08 AM 54.0 °F 52.0 °F 93% 30.16 in 0.5 mi Calm Calm - N/A Fog Fog
6:22 AM 53.1 °F 51.1 °F 93% 30.16 in 1.8 mi NNW 3.5 mph - N/A   Clear
6:26 AM 55.0 °F 52.0 °F 89% 30.16 in 3.0 mi NNW 4.6 mph - N/A   Clear
6:53 AM 54.0 °F 51.1 °F 90% 30.17 in 10.0 mi NNW 5.8 mph - N/A   Clear
7:53 AM 54.0 °F 50.0 °F 86% 30.17 in 10.0 mi North 3.5 mph - N/A   Clear
8:53 AM 55.0 °F 51.1 °F 86% 30.19 in 10.0 mi Calm Calm - N/A   Clear
9:53 AM 55.9 °F 51.1 °F 84% 30.20 in 10.0 mi Calm Calm - N/A   Clear
10:53 AM 57.9 °F 50.0 °F 75% 30.21 in 10.0 mi North 5.8 mph - N/A   Clear
11:53 AM 62.1 °F 48.0 °F 60% 30.22 in 10.0 mi NNE 4.6 mph - N/A   Clear
12:53 PM 66.0 °F 48.0 °F 52% 30.21 in 10.0 mi Variable 4.6 mph - N/A   Clear
1:53 PM 69.1 °F 42.1 °F 38% 30.19 in 10.0 mi North 6.9 mph - N/A   Clear
2:53 PM 70.0 °F 39.0 °F 32% 30.17 in 10.0 mi Variable 3.5 mph - N/A   Clear
3:53 PM 71.1 °F 37.9 °F 30% 30.16 in 10.0 mi Variable 5.8 mph - N/A   Clear
4:53 PM 72.0 °F 37.0 °F 28% 30.15 in 10.0 mi North 6.9 mph - N/A   Clear
5:53 PM 71.1 °F 36.0 °F 28% 30.16 in 10.0 mi NNW 6.9 mph - N/A   Clear
6:53 PM 66.0 °F 39.9 °F 38% 30.16 in 10.0 mi North 4.6 mph - N/A   Clear
7:53 PM 55.0 °F 46.9 °F 74% 30.18 in 10.0 mi NNE 3.5 mph - N/A   Clear
8:53 PM 52.0 °F 46.0 °F 80% 30.19 in 10.0 mi Calm Calm - N/A   Clear
9:53 PM 51.1 °F 45.0 °F 80% 30.21 in 10.0 mi ESE 4.6 mph - N/A   Clear
10:53 PM 48.9 °F 44.1 °F 83% 30.22 in 10.0 mi Calm Calm - N/A   Clear
11:53 PM 48.0 °F 43.0 °F 83% 30.22 in 10.0 mi ESE 5.8 mph - N/A   Clear